Flag for Germany Weather past 2 weeks in Wolfenbüttel, Lower Saxony, Germany

Now
52 °F

Fog.


Feels Like: 52 °F
Forecast: 55 / 70 °F
Wind: No wind

Location: Braunschweig

Current Time: Oct 2, 2014 at 6:46:24 AM

Latest Report: Oct 2, 2014 at 6:20 AM


Visibility: 3 mi

Pressure: 30.36 "Hg

Humidity: 100%

Dew point: 52 °F

Location of WolfenbüttelLocation

Historic Weather in Wolfenbüttel — Graph

°F

Wolfenbüttel temperature yesterday

Maximum temperature yesterday: 68 °F (at 5:50 PM)
Minimum temperature yesterday: 54 °F (at 6:20 AM)
Average temperature yesterday: 61 °F

Past Weeks' High & Low Weather Summary

 TemperatureHumidityPressure
High75 °F (Sep 17, 2:20 PM)100% (Sep 16, 9:20 PM)30.36 "Hg (Sep 16, 9:20 PM)
Low43 °F (Sep 23, 7:20 AM)47% (Sep 17, 3:50 PM)29.80 "Hg (Sep 24, 7:20 PM)
Average61 °F80%30.05 "Hg
* Reported Sep 16 9:20 PM — Oct 1 9:20 PM, Wolfenbüttel, Weather by CustomWeather, © 2014

Note: Actual official high and low records may vary slightly from our data, if they occured in-between our weather recording intervals... More about our weather records

Advertising

Wolfenbüttel weather history for previous 24 hours

 ConditionsComfort  
Time TempWeatherWind HumidityBarometerVisibility
9:20 PM
Oct 1
55 °FClear.5 mph100%30.33 "Hg4 mi
8:50 PM55 °FClear.No wind100%30.33 "Hg4 mi
8:20 PM57 °FPassing clouds.2 mph100%30.33 "Hg4 mi
7:50 PM59 °FClear.No wind94%30.33 "Hg6 mi
7:20 PM61 °FClear.No wind94%30.30 "Hg4 mi
6:50 PM63 °FClear.No wind88%30.30 "Hg5 mi
6:20 PM66 °FClear.1 mph83%30.30 "Hg5 mi
5:50 PM68 °FClear.No wind69%30.30 "Hg5 mi
5:20 PM66 °FClear.No wind73%30.30 "Hg5 mi
4:50 PM66 °FClear.3 mph73%30.30 "Hg5 mi
4:20 PM66 °FClear.5 mph73%30.30 "Hg5 mi
3:50 PM66 °FPartly sunny.5 mph73%30.30 "Hg5 mi
3:20 PM66 °FPartly sunny.6 mph78%30.30 "Hg5 mi
2:50 PM66 °FPartly sunny.5 mph73%30.30 "Hg5 mi
2:20 PM66 °FPartly sunny.7 mph73%30.30 "Hg5 mi
1:50 PM66 °FBroken clouds.6 mph73%30.30 "Hg6 mi
1:20 PM66 °FBroken clouds.6 mph73%30.33 "HgN/A
12:50 PM66 °FPartly sunny.7 mph78%30.33 "Hg6 mi
12:20 PM64 °FClear.6 mph78%30.33 "Hg6 mi
11:50 AM63 °FClear.5 mph88%30.33 "Hg6 mi
11:20 AM63 °FClear.6 mph88%30.33 "Hg5 mi
10:50 AM61 °FClear.5 mph94%30.33 "Hg4 mi
10:20 AM59 °FScattered clouds.5 mph100%30.33 "Hg4 mi
9:50 AM59 °FScattered clouds.2 mph100%30.33 "Hg3 mi
9:20 AM57 °FFog.No wind100%30.30 "Hg3 mi
8:50 AM55 °FFog.No wind100%30.30 "Hg3 mi
8:20 AM54 °FFog.No wind100%30.30 "Hg2 mi
7:50 AM54 °FSleet. Overcast.2 mph100%30.30 "Hg1 mi
7:20 AM54 °FFog.3 mph100%30.30 "Hg2 mi
6:50 AM54 °FFog.No wind100%30.30 "Hg2 mi
6:20 AM54 °FFog.No wind100%30.30 "Hg2 mi
Weather by CustomWeather, © 2014

See weather overviewHow to use our weather pages